User: anonymous   Login
Location: Bergnershof
(48.9468°N, 10.9431°E)
Time: 02:47:07
(UTC+00:00)
Language:

CSL-04 Debris - Orbit

View from above orbital plane
View from above orbital plane
View from above satellite
View from above satellite

Ground track
Ground track

The orbit data is extracted from the following two-line orbital elements,

1 25733U 99025D   21137.00315750  .00000087  00000-0  66379-4 0  9990
2 25733  98.9113 172.3562 0016122  94.6899 265.6116 14.16459695136913
Epoch (UTC): 17 May 2021 00:04:32
Eccentricity: 0.0016122
inclination: 98.9113°
perigee height: 826 km
apogee height: 849 km
right ascension of ascending node: 172.3562°
argument of perigee: 94.6899°
revolutions per day: 14.16459695
mean anomaly at epoch: 265.6116°
orbit number at epoch: 13691

The dashed part of the orbit path shows where the satellite is in the earth's shadow,  

DLR